Wind_Speed
22 21 21 20 20 20 21 21 21 21 22 23 24 24 25 26 26 27 27 28 29 29 30 30 30 29 28 28 27 26 24 24 25 24 23 24 25 25 26 27 27 28 29 29 31 33 35 34 34 36 35 34 33 32 32 34 34 32 34 38 38 35 32
24 24 23 22 21 21 21 21 22 22 22 23 24 25 26 26 27 28 28 28 28 29 30 30 30 29 28 28 27 26 25 24 25 25 24 25 26 26 27 28 27 28 29 29 30 33 35 34 33 35 35 35 35 33 32 35 36 33 32 36 39 36 32
27 26 26 25 24 23 22 22 22 23 23 24 25 25 26 27 27 28 29 29 29 29 29 30 30 30 29 28 28 27 26 26 26 27 26 26 27 27 28 29 29 29 29 30 31 33 36 36 34 33 35 36 35 34 33 34 37 36 33 33 37 34 29
28 28 28 27 27 26 25 24 24 24 25 25 26 26 27 28 28 29 29 30 30 30 30 30 30 30 30 29 29 28 28 28 28 28 27 27 28 29 30 31 31 31 31 31 33 35 37 37 36 34 34 36 36 35 33 33 36 37 33 30 36 33 28
30 29 29 29 29 28 28 27 26 26 26 26 27 28 29 29 29 29 30 30 30 31 31 31 30 30 30 29 29 29 30 30 29 29 29 29 30 30 30 32 33 33 33 33 35 36 37 39 40 37 35 36 36 35 33 33 35 36 32 29 32 32 29
30 31 30 30 30 29 29 29 29 29 28 28 29 29 30 31 31 31 31 31 31 31 31 31 31 30 30 30 30 31 31 31 31 30 30 30 30 31 32 33 33 34 35 35 36 37 38 40 40 38 36 36 36 35 34 34 34 34 33 31 31 32 30
31 31 31 31 31 31 31 31 31 30 30 30 30 31 31 32 33 33 34 34 34 33 33 32 32 32 31 31 31 31 32 32 32 32 31 31 31 32 33 34 34 34 35 36 37 38 38 39 40 38 36 36 36 36 35 35 35 34 33 31 32 32 32
31 31 32 32 32 32 33 32 32 32 32 32 32 32 32 33 33 34 35 36 36 36 35 35 34 34 34 33 33 33 33 33 33 32 32 33 33 33 34 35 36 35 36 37 38 38 38 38 39 38 37 37 37 37 36 35 35 34 32 31 32 31 32
31 32 33 33 33 34 34 34 34 34 33 33 33 33 33 33 34 35 36 37 37 37 37 36 36 36 35 35 35 34 34 34 34 33 34 34 34 34 35 36 37 36 37 38 38 38 38 37 37 36 36 36 37 38 37 36 35 33 32 32 32 32 33
32 33 34 35 35 36 36 36 36 35 35 35 35 35 34 35 35 36 36 37 38 38 38 38 37 37 36 36 36 36 35 35 35 34 35 35 35 35 35 36 37 37 37 37 37 37 37 36 35 35 35 36 37 38 38 36 35 34 33 32 33 34 36
33 35 36 37 37 38 38 38 37 36 36 36 36 36 36 36 37 37 37 38 39 39 39 39 39 38 38 37 37 37 36 36 35 35 35 36 36 36 36 36 37 37 37 37 37 37 36 34 33 33 35 36 36 37 38 37 35 34 33 33 34 36 38
35 36 37 38 39 40 40 39 38 38 38 38 37 37 37 38 38 38 39 40 40 41 40 40 40 39 39 38 37 37 37 36 36 35 35 36 36 36 36 36 36 36 37 36 36 36 35 33 32 32 34 35 36 36 37 37 35 33 32 33 34 35 38
36 37 38 39 40 41 41 40 40 40 40 39 39 38 39 39 40 40 41 42 42 43 42 41 41 40 40 39 38 38 37 37 36 36 35 36 36 36 36 36 36 36 36 35 35 35 34 31 31 32 33 34 34 35 36 36 34 30 31 33 32 30 33
37 39 40 41 41 42 43 42 42 42 41 40 39 40 40 41 42 42 43 43 44 44 44 43 42 41 41 40 40 40 39 38 38 37 36 36 36 37 36 35 35 36 36 35 34 34 32 30 30 32 33 34 34 34 35 35 33 30 31 33 31 28 28
39 41 42 42 43 44 44 44 44 44 42 41 41 41 42 43 43 43 43 44 45 45 45 44 43 42 41 41 41 41 40 40 39 38 37 36 36 36 35 35 34 35 35 34 33 33 31 29 30 31 33 34 34 34 35 36 34 32 32 32 31 28 26
41 42 43 44 45 45 46 46 46 44 43 42 42 43 43 43 43 43 43 43 44 44 44 44 43 42 42 41 40 41 41 40 39 38 37 36 35 35 35 34 34 34 34 33 32 32 30 29 30 31 32 34 35 35 36 38 36 33 34 34 32 29 27
43 44 45 46 46 47 47 47 46 44 44 44 44 44 44 44 43 43 43 43 43 44 43 43 43 42 42 41 40 40 40 40 39 38 36 35 34 34 34 34 33 33 33 33 32 30 29 28 29 31 32 33 34 35 38 40 38 35 35 35 34 31 28
44 46 46 47 48 48 48 47 46 45 45 45 44 44 44 44 44 44 44 43 43 43 43 43 42 42 42 42 41 40 40 40 39 38 36 35 34 34 34 33 33 33 33 32 31 30 29 29 29 31 32 33 33 35 38 39 38 37 37 36 35 33 30
46 47 48 48 49 49 48 47 46 46 46 45 45 45 45 44 44 44 44 44 44 43 43 43 42 42 42 42 42 42 41 40 40 38 37 36 35 35 35 35 34 33 33 32 31 30 29 28 29 31 32 33 33 34 37 39 38 38 38 37 35 34 33
47 48 49 49 48 48 47 46 46 45 45 45 45 45 44 44 44 44 45 45 45 45 44 43 43 43 43 43 43 44 43 42 41 40 39 38 37 36 36 36 36 34 34 33 32 30 29 28 29 31 32 33 33 34 36 38 38 39 39 38 37 37 35
48 48 48 48 46 46 45 45 45 45 45 45 45 44 44 44 45 46 46 46 46 46 45 45 44 44 44 44 45 45 45 45 44 43 41 40 39 38 37 37 37 36 35 34 32 31 30 28 28 30 32 33 33 34 36 37 39 40 40 39 38 38 37
47 47 46 45 45 44 44 45 45 45 45 45 44 45 46 48 48 48 48 47 47 47 47 46 46 45 45 45 45 46 46 46 46 45 44 42 41 40 39 38 38 37 36 35 33 32 31 30 29 30 32 33 34 34 36 38 40 41 41 41 40 40 39
45 44 44 43 44 44 44 45 45 45 45 46 46 47 49 49 49 49 49 49 49 49 49 49 49 49 48 48 47 47 48 48 48 47 46 45 44 42 41 40 39 38 37 36 34 33 33 32 30 30 31 33 34 34 35 37 41 43 43 43 43 42 41
42 42 42 42 43 44 45 45 46 47 47 48 48 49 49 49 49 50 51 52 52 53 53 53 53 53 52 52 51 51 51 51 51 50 49 48 47 45 44 42 41 40 39 37 36 35 34 33 32 31 31 32 33 34 34 36 40 44 45 45 44 43 42
40 41 41 42 44 45 46 46 47 47 47 48 48 49 50 51 52 53 53 54 54 55 55 55 56 55 55 55 54 54 54 54 54 53 53 51 50 49 47 45 43 41 40 39 38 36 35 35 34 33 32 31 32 34 35 36 38 42 45 45 44 44 43
40 41 42 44 44 45 45 45 45 46 46 47 49 50 51 52 53 53 54 54 54 54 55 55 56 56 56 56 56 55 55 55 55 55 55 55 54 52 50 49 47 45 43 41 40 38 37 36 35 34 33 31 31 33 35 37 39 41 43 44 44 44 44
41 42 42 42 42 42 43 43 44 46 47 48 49 50 51 51 52 52 53 53 54 54 54 54 55 55 56 56 56 56 55 55 55 55 56 56 56 55 54 52 50 48 46 44 41 40 38 37 36 35 34 33 32 33 35 37 40 42 44 44 44 45 45
40 40 40 40 40 41 42 44 45 46 47 47 48 48 49 49 50 51 51 52 52 53 53 53 54 55 55 56 57 57 57 56 56 55 55 55 56 56 55 54 53 51 49 47 44 42 40 38 38 37 36 34 33 33 34 36 39 41 44 46 46 45 45
38 38 39 40 41 42 43 44 44 45 45 46 46 47 48 49 50 50 51 51 51 52 53 53 54 54 55 56 57 58 58 58 58 57 56 56 56 56 55 55 54 53 52 50 48 45 42 40 39 39 37 35 34 33 34 36 38 39 43 46 47 47 46
37 38 39 40 40 41 41 42 42 43 44 45 47 47 48 49 49 50 50 51 52 52 53 54 54 55 55 56 56 57 58 59 59 59 58 57 56 56 56 55 55 54 53 52 50 48 45 42 40 40 39 37 35 33 33 35 37 39 42 44 45 46 47
36 37 38 38 38 39 39 40 41 43 44 46 47 47 48 49 49 50 51 52 52 53 54 55 55 55 56 57 57 58 59 59 59 59 59 59 57 56 56 56 55 54 53 52 51 49 47 45 42 41 40 39 36 34 33 35 37 39 41 43 43 44 46
35 36 36 36 36 37 38 40 42 43 44 45 46 47 48 49 49 50 51 52 53 53 54 54 54 55 56 58 59 60 60 59 59 58 58 58 57 56 56 56 55 54 53 52 51 50 48 46 44 42 42 41 38 36 35 36 37 39 41 42 43 43 45
33 33 33 34 36 37 39 40 42 43 44 45 46 47 48 48 49 50 51 51 52 52 52 53 54 55 57 59 60 61 60 59 57 56 55 55 55 55 55 55 55 54 53 52 51 50 49 48 46 44 44 43 41 38 37 37 38 40 41 42 43 43 44
31 32 33 35 36 38 39 40 42 42 43 44 45 46 47 48 49 50 50 50 50 50 51 52 54 56 58 60 61 61 59 57 54 52 50 50 51 51 52 53 53 53 52 51 50 49 49 48 47 46 45 45 44 41 38 37 38 39 41 42 44 44 44
30 32 34 35 37 38 39 40 41 41 42 43 44 45 46 47 48 48 48 48 48 49 50 52 54 57 60 62 61 59 56 53 50 47 45 44 45 46 47 48 50 51 51 51 50 50 50 50 49 48 46 46 46 43 40 37 37 38 40 41 43 44 45
31 33 34 36 37 38 38 39 39 39 40 41 43 44 45 46 46 46 46 46 47 49 50 53 55 58 61 63 61 57 53 50 47 44 41 40 40 41 43 44 45 47 49 50 50 50 51 51 51 50 49 48 48 46 42 39 37 37 38 39 41 43 45
32 34 35 36 37 37 37 37 37 37 39 40 42 43 43 44 44 43 44 45 46 48 50 53 56 60 63 62 59 55 52 49 46 43 39 36 35 36 38 40 41 43 46 48 50 51 52 53 54 54 52 51 50 48 44 41 40 38 37 37 39 41 43
Wind_Direction
291 292 293 293 294 296 297 297 297 298 298 299 299 299 299 299 299 298 297 295 295 296 296 296 296 295 294 292 291 291 292 292 292 294 294 294 295 296 296 295 295 295 293 292 289 286 282 277 275 274 271 267 266 266 267 268 267 263 259 249 239 239 242
285 287 288 289 290 292 294 296 297 297 297 298 299 299 299 299 299 299 298 297 297 296 295 295 295 295 294 291 290 290 291 291 292 293 293 294 296 296 296 296 296 295 293 293 292 290 287 281 275 272 270 267 264 263 263 265 268 267 266 254 240 237 241
283 284 285 286 286 287 289 293 296 297 298 297 297 298 298 299 299 299 299 299 298 297 297 297 296 295 294 292 291 290 290 290 291 292 292 293 293 294 294 295 295 294 293 293 292 290 288 285 279 272 268 267 264 261 259 262 267 268 269 255 237 235 243
283 284 285 286 286 286 287 288 290 292 295 297 297 297 298 299 299 300 300 300 300 300 300 299 298 296 294 291 289 288 288 289 290 291 291 291 291 291 293 294 295 295 294 294 292 290 288 286 281 273 267 265 262 259 258 261 264 268 272 255 235 235 244
285 286 286 287 288 288 288 288 288 289 290 293 295 296 297 298 299 300 300 300 300 300 300 299 297 295 293 289 286 285 286 287 288 288 289 289 289 290 292 293 294 295 296 295 292 290 288 286 281 275 268 264 260 257 256 257 260 264 271 263 245 240 241
286 287 287 288 289 289 290 289 290 290 290 291 292 293 294 296 297 299 299 299 299 299 299 298 296 294 292 288 284 283 284 285 286 287 288 287 287 289 290 290 292 293 295 295 293 291 290 287 282 276 269 263 259 256 253 253 255 258 264 265 261 253 243
287 288 289 290 291 291 290 291 292 293 293 293 293 292 293 294 295 297 298 299 300 300 300 298 296 295 293 289 286 284 284 285 286 288 288 288 288 288 288 289 291 292 293 294 294 293 291 286 280 274 268 262 259 257 254 252 251 254 258 260 263 258 243
288 290 291 292 293 292 292 292 293 294 295 296 295 294 294 294 294 296 297 298 300 301 301 300 298 296 295 293 291 288 287 286 287 288 288 288 288 288 289 290 291 292 293 293 294 294 292 286 279 274 268 262 258 255 253 252 250 250 253 254 257 255 244
289 290 292 293 294 295 294 294 294 294 295 296 297 296 295 295 295 295 296 297 299 300 300 299 298 296 295 293 292 290 289 288 288 288 288 288 289 289 290 291 292 293 293 293 294 295 294 287 278 272 268 263 259 255 251 251 250 248 250 251 253 253 247
288 291 294 296 297 296 296 295 294 294 295 297 297 297 296 296 296 295 295 296 297 298 298 298 296 295 294 292 291 290 290 289 289 289 289 289 290 290 290 291 292 294 294 294 295 296 295 287 277 270 267 263 260 256 251 249 249 248 248 248 250 251 248
290 294 296 298 298 297 296 296 296 296 298 299 298 297 297 296 296 295 295 295 296 296 296 296 296 295 293 292 291 291 290 290 290 289 290 290 290 290 291 291 292 294 295 295 296 297 294 285 276 270 267 263 260 257 253 249 247 247 248 249 250 250 248
291 294 296 298 298 298 298 298 298 300 301 301 300 298 297 296 295 295 295 295 295 295 295 295 295 294 292 291 291 290 290 289 289 289 289 290 290 290 291 292 293 293 295 296 297 298 294 284 276 271 266 262 260 258 253 249 248 246 246 249 252 253 249
289 293 295 296 298 299 299 300 300 302 303 303 301 300 298 297 296 295 295 294 294 294 294 293 293 292 291 290 289 289 289 289 289 290 290 290 290 291 291 292 293 293 294 296 297 298 294 284 275 269 264 260 259 258 252 248 247 244 242 246 252 257 252
289 292 294 296 298 299 300 301 302 303 303 303 301 300 299 297 297 296 295 294 293 293 293 292 292 291 290 290 289 289 288 288 289 290 291 291 290 290 290 291 292 292 293 295 297 298 293 284 275 269 264 261 258 256 250 246 244 241 241 245 250 256 254
288 291 293 295 297 298 300 301 302 302 302 301 301 300 299 298 297 295 294 294 293 292 292 292 292 291 290 290 289 289 289 289 290 291 292 292 290 290 289 290 291 291 292 294 296 298 293 284 276 271 266 262 259 253 247 244 241 237 239 245 247 250 250
286 290 292 294 295 297 298 300 301 301 301 301 300 300 299 297 296 295 294 293 293 292 292 292 291 291 291 290 289 289 289 289 291 292 293 292 291 290 289 289 290 291 292 293 295 297 293 284 278 274 269 263 258 252 245 241 239 236 238 244 245 245 243
286 289 291 293 294 296 297 299 300 300 300 300 300 299 298 297 296 295 294 294 293 293 293 292 292 292 291 290 289 289 289 290 291 292 292 292 291 290 288 288 289 290 291 292 294 296 292 284 278 275 271 264 258 251 244 240 239 237 239 243 243 240 236
287 289 291 292 294 295 296 298 299 299 299 299 299 298 297 297 296 295 294 294 293 293 293 293 293 292 292 291 290 289 289 290 290 291 291 291 290 289 288 288 288 289 290 290 292 294 292 285 276 271 269 264 259 253 246 240 237 237 238 239 239 237 233
287 289 290 292 293 294 296 297 298 299 299 299 299 298 297 297 296 296 295 294 294 293 292 292 292 292 292 291 291 290 289 289 289 290 290 289 289 288 287 288 288 288 289 289 290 291 292 288 279 272 267 263 259 255 248 240 235 235 236 236 237 237 235
287 289 290 292 293 295 296 297 298 299 299 299 298 298 297 297 298 298 297 296 295 294 293 293 292 292 292 291 291 290 290 289 289 289 288 288 287 287 287 287 287 288 288 287 287 288 290 288 282 275 269 263 259 255 250 242 236 235 236 236 237 238 236
287 289 291 293 294 296 297 298 298 299 299 298 298 298 298 299 300 299 299 298 297 296 295 294 293 293 292 292 291 291 290 289 289 288 288 287 286 286 286 286 286 286 286 285 285 285 286 286 283 276 270 264 259 255 250 243 237 236 237 236 236 237 235
288 290 292 294 295 296 297 298 298 298 298 298 298 299 300 301 301 300 299 299 298 298 297 296 295 294 293 293 292 291 291 290 289 288 287 287 286 285 284 284 284 284 284 284 282 282 283 283 282 278 272 265 258 254 250 243 238 238 238 236 235 236 234
290 292 294 295 297 297 298 298 298 298 298 298 299 299 300 301 301 301 300 300 300 299 299 298 297 296 295 294 293 292 291 291 290 289 288 287 286 285 283 282 281 281 281 281 280 279 279 280 281 279 276 269 260 253 250 245 240 239 238 236 235 235 235
293 294 295 297 297 298 298 298 298 298 298 299 299 300 301 301 302 301 301 301 300 300 299 298 297 296 295 294 293 292 291 290 289 288 288 287 286 285 284 282 280 279 278 278 277 276 276 277 277 278 276 272 264 254 248 246 243 240 239 237 235 235 236
294 295 295 296 297 297 297 298 298 299 300 301 302 302 303 303 303 302 302 301 300 300 299 298 297 295 294 293 291 290 289 288 287 286 286 285 285 284 283 282 280 278 276 276 275 274 274 274 274 275 274 272 267 258 249 246 245 241 239 238 236 235 236
293 294 295 295 296 297 298 299 300 301 302 303 304 304 304 303 303 303 302 302 301 301 300 300 299 298 296 295 293 291 289 287 285 284 283 282 282 281 281 280 279 278 276 274 273 272 271 271 271 272 272 270 266 260 253 248 247 245 241 239 237 236 235
293 294 295 296 297 299 300 302 303 304 304 305 305 305 305 305 305 304 304 304 304 303 303 303 302 301 300 298 296 294 292 290 287 284 282 280 279 278 277 277 276 276 275 273 271 270 269 268 268 269 269 269 265 261 255 250 247 246 243 241 239 237 235
295 296 297 298 300 302 303 304 305 305 305 305 306 306 306 306 306 306 306 306 306 306 305 305 304 303 302 301 299 297 295 292 289 286 283 280 278 276 274 273 272 272 272 271 270 268 266 265 265 266 266 266 265 262 258 254 250 246 243 241 239 236 234
296 298 300 301 303 304 305 305 306 306 307 307 307 308 308 308 308 307 307 307 306 306 305 305 304 303 302 301 300 299 297 294 291 288 284 281 278 275 273 271 269 268 267 267 267 266 265 262 261 262 263 263 263 261 259 256 254 249 243 240 238 235 232
298 300 302 303 304 305 306 307 308 309 309 310 309 309 308 308 308 307 307 307 306 306 306 305 304 303 303 302 301 300 298 296 293 290 286 282 278 274 271 269 267 265 263 263 263 263 262 260 258 258 259 260 260 260 257 255 254 250 245 240 238 235 232
299 301 302 304 305 307 309 310 310 311 310 310 309 309 309 308 308 308 308 307 307 307 307 307 306 306 305 304 303 302 300 297 294 291 287 283 279 274 270 267 265 263 260 259 258 258 258 257 255 254 255 256 256 256 255 253 251 249 245 241 238 236 233
300 302 304 306 308 310 311 311 311 310 310 309 309 309 309 309 309 309 310 310 310 310 310 309 309 309 308 307 306 304 302 299 295 291 287 283 279 274 270 266 262 260 258 255 254 253 253 253 252 251 251 252 252 251 251 251 249 246 244 241 240 238 234
302 304 307 309 310 311 311 310 310 310 310 310 310 310 310 311 311 312 313 313 312 312 312 312 312 312 311 311 310 308 305 301 297 292 286 282 277 273 269 264 261 257 254 252 250 248 247 247 248 247 248 248 248 247 246 247 247 245 243 241 241 240 237
305 307 308 309 310 310 310 310 311 311 311 311 311 312 313 314 315 315 315 315 315 315 315 315 315 316 316 316 315 313 309 304 299 293 288 282 277 272 267 263 259 255 251 248 245 243 242 241 242 242 244 245 246 245 243 244 246 246 244 241 241 241 239
305 307 308 309 309 310 311 312 312 312 312 313 314 315 317 317 318 318 318 318 318 318 319 319 320 321 321 321 320 317 313 308 302 297 291 285 278 273 268 263 258 253 249 244 241 238 237 236 236 237 238 241 243 243 241 240 243 246 246 244 242 240 238
306 307 309 309 310 311 312 313 313 313 314 315 317 318 319 320 320 321 321 321 322 323 323 324 325 326 327 327 325 322 318 313 308 302 296 289 281 273 268 264 258 252 247 242 237 234 232 232 232 232 233 235 239 241 239 237 239 242 246 246 244 240 238
307 308 309 310 311 312 312 313 313 315 317 318 320 321 321 322 322 323 323 325 326 327 328 329 330 332 332 331 329 326 322 318 314 309 303 297 288 276 268 264 259 253 246 240 234 231 229 229 229 230 230 231 235 238 238 236 235 236 240 244 245 243 239
Height
5815 5815 5814 5814 5813 5812 5811 5810 5809 5809 5808 5807 5806 5806 5805 5804 5803 5802 5802 5801 5800 5798 5797 5796 5795 5794 5792 5791 5789 5788 5787 5785 5784 5783 5782 5781 5779 5778 5777 5776 5775 5774 5773 5772 5771 5769 5769 5769 5769 5767 5767 5767 5767 5767 5767 5766 5766 5766 5767 5767 5768 5769 5769
5813 5812 5812 5812 5811 5810 5809 5808 5807 5806 5805 5804 5803 5803 5802 5801 5800 5799 5798 5798 5797 5796 5795 5793 5792 5791 5789 5788 5786 5785 5784 5782 5781 5780 5779 5778 5776 5775 5774 5772 5772 5771 5769 5768 5767 5765 5764 5764 5765 5764 5763 5763 5763 5763 5763 5762 5762 5762 5762 5762 5763 5764 5765
5810 5809 5809 5809 5808 5808 5807 5806 5804 5803 5802 5801 5800 5800 5799 5798 5797 5796 5795 5794 5793 5793 5792 5790 5789 5788 5786 5784 5783 5782 5781 5779 5778 5777 5776 5775 5773 5772 5770 5769 5768 5767 5765 5764 5763 5761 5759 5759 5760 5760 5759 5758 5758 5759 5759 5758 5758 5757 5758 5757 5757 5759 5761
5806 5806 5805 5805 5804 5804 5804 5803 5802 5800 5799 5798 5797 5796 5795 5794 5793 5792 5791 5790 5789 5788 5787 5786 5785 5784 5782 5781 5780 5779 5778 5776 5775 5773 5772 5771 5769 5768 5767 5765 5764 5763 5761 5760 5759 5757 5755 5754 5754 5755 5755 5754 5753 5754 5754 5754 5754 5753 5754 5754 5754 5755 5757
5803 5802 5802 5801 5800 5800 5799 5799 5798 5797 5796 5795 5793 5792 5791 5791 5790 5789 5788 5786 5785 5784 5783 5782 5781 5780 5779 5778 5777 5776 5774 5773 5772 5771 5769 5768 5766 5765 5763 5761 5760 5758 5757 5756 5754 5752 5751 5749 5748 5749 5750 5749 5749 5749 5749 5750 5750 5750 5751 5752 5752 5752 5753
5799 5799 5798 5798 5797 5796 5795 5795 5794 5794 5793 5791 5790 5789 5788 5787 5786 5785 5784 5783 5782 5781 5780 5778 5777 5776 5775 5774 5773 5772 5770 5769 5768 5767 5766 5764 5763 5761 5759 5758 5756 5755 5753 5751 5750 5748 5746 5744 5743 5743 5745 5744 5743 5744 5744 5745 5745 5746 5747 5748 5749 5749 5749
5796 5796 5795 5794 5794 5793 5792 5791 5790 5789 5788 5787 5786 5785 5784 5783 5782 5780 5779 5778 5777 5776 5775 5774 5773 5772 5771 5770 5769 5768 5766 5765 5764 5763 5761 5760 5759 5757 5755 5753 5752 5751 5749 5747 5745 5743 5742 5740 5738 5738 5739 5739 5739 5739 5739 5740 5741 5742 5744 5745 5745 5745 5746
5793 5793 5792 5791 5790 5790 5789 5788 5787 5786 5785 5783 5782 5781 5780 5779 5777 5776 5774 5773 5772 5770 5770 5769 5767 5766 5765 5764 5763 5763 5762 5761 5760 5759 5757 5755 5754 5753 5751 5749 5747 5746 5744 5742 5740 5738 5737 5735 5733 5733 5734 5734 5734 5735 5735 5736 5736 5738 5740 5741 5741 5742 5743
5791 5790 5789 5788 5787 5786 5785 5784 5783 5782 5781 5779 5778 5777 5776 5775 5773 5772 5770 5769 5767 5766 5765 5764 5763 5761 5760 5759 5758 5757 5757 5756 5755 5754 5752 5751 5749 5748 5746 5744 5742 5741 5739 5737 5735 5733 5731 5730 5728 5728 5728 5729 5729 5730 5731 5731 5732 5734 5736 5736 5737 5738 5739
5788 5787 5786 5785 5784 5782 5781 5780 5779 5778 5777 5775 5774 5772 5772 5771 5769 5768 5766 5765 5763 5762 5761 5759 5758 5757 5756 5755 5754 5753 5752 5751 5750 5749 5747 5746 5744 5743 5741 5740 5738 5736 5734 5732 5730 5728 5726 5724 5724 5724 5723 5724 5725 5726 5727 5728 5729 5730 5731 5732 5733 5734 5735
5784 5783 5782 5781 5780 5778 5777 5776 5775 5774 5773 5771 5769 5768 5767 5766 5764 5763 5762 5761 5759 5758 5756 5755 5753 5752 5751 5750 5749 5748 5747 5746 5745 5744 5742 5741 5739 5738 5737 5735 5733 5731 5729 5727 5725 5723 5721 5719 5719 5719 5719 5719 5720 5722 5723 5724 5725 5726 5727 5727 5728 5729 5729
5781 5780 5779 5778 5776 5775 5773 5772 5771 5770 5768 5767 5765 5763 5762 5761 5760 5759 5757 5756 5755 5753 5752 5750 5749 5748 5746 5745 5744 5743 5742 5741 5740 5739 5738 5736 5734 5733 5732 5730 5728 5726 5724 5722 5720 5718 5716 5715 5714 5714 5714 5715 5716 5717 5718 5719 5720 5722 5723 5723 5723 5724 5724
5778 5777 5776 5774 5773 5771 5770 5768 5767 5766 5764 5762 5761 5759 5758 5757 5755 5754 5753 5751 5750 5749 5747 5746 5744 5743 5742 5740 5739 5738 5737 5736 5735 5734 5733 5731 5729 5728 5727 5725 5723 5721 5719 5718 5716 5713 5711 5710 5710 5709 5709 5710 5711 5712 5713 5714 5716 5718 5718 5718 5719 5719 5719
5775 5773 5772 5771 5769 5767 5766 5764 5763 5762 5760 5759 5757 5755 5754 5753 5751 5750 5748 5747 5745 5744 5743 5741 5740 5738 5737 5736 5734 5733 5732 5731 5730 5729 5728 5727 5724 5723 5722 5720 5719 5716 5714 5713 5711 5709 5707 5706 5705 5704 5705 5706 5706 5707 5708 5709 5712 5714 5714 5714 5715 5716 5716
5771 5769 5768 5766 5765 5764 5762 5761 5759 5758 5756 5755 5753 5752 5750 5749 5747 5745 5744 5742 5740 5739 5738 5736 5735 5733 5732 5731 5729 5728 5727 5726 5725 5724 5723 5721 5720 5718 5716 5715 5714 5712 5710 5708 5707 5704 5702 5701 5701 5701 5701 5701 5702 5703 5704 5705 5707 5709 5710 5711 5711 5712 5714
5766 5765 5764 5762 5761 5760 5758 5756 5755 5754 5752 5750 5749 5747 5745 5744 5742 5740 5739 5737 5735 5734 5732 5731 5729 5728 5727 5726 5724 5723 5721 5720 5720 5719 5717 5716 5714 5713 5711 5710 5709 5707 5705 5704 5702 5700 5698 5697 5697 5697 5697 5697 5697 5698 5699 5700 5703 5705 5706 5707 5708 5709 5711
5762 5761 5759 5758 5757 5755 5754 5752 5750 5749 5747 5745 5744 5742 5740 5739 5737 5735 5733 5732 5730 5728 5727 5725 5724 5722 5721 5720 5719 5717 5716 5715 5714 5713 5712 5711 5709 5708 5706 5705 5704 5703 5701 5699 5698 5696 5694 5693 5693 5693 5693 5693 5693 5694 5695 5696 5698 5701 5702 5702 5704 5706 5708
5758 5756 5755 5754 5752 5751 5749 5747 5745 5743 5741 5740 5738 5736 5735 5733 5731 5729 5728 5726 5725 5723 5722 5720 5718 5716 5715 5713 5713 5712 5711 5709 5708 5707 5706 5705 5704 5703 5701 5700 5699 5698 5696 5695 5693 5692 5690 5689 5689 5689 5689 5689 5689 5689 5690 5692 5694 5696 5697 5698 5700 5702 5704
5753 5752 5751 5749 5747 5746 5744 5742 5740 5738 5736 5734 5732 5731 5729 5727 5725 5724 5722 5720 5719 5718 5716 5714 5713 5711 5709 5707 5706 5705 5704 5704 5703 5702 5701 5700 5699 5697 5696 5695 5694 5693 5691 5690 5689 5687 5686 5685 5684 5684 5685 5685 5685 5685 5685 5687 5689 5690 5692 5694 5696 5697 5700
5749 5747 5746 5744 5742 5741 5739 5737 5735 5733 5731 5729 5727 5725 5723 5722 5720 5718 5716 5715 5713 5712 5710 5709 5707 5705 5703 5702 5700 5699 5698 5697 5696 5696 5695 5694 5693 5692 5691 5689 5689 5688 5686 5685 5684 5683 5681 5680 5680 5680 5680 5680 5681 5681 5681 5682 5684 5686 5688 5690 5691 5693 5696
5744 5742 5741 5739 5737 5735 5734 5732 5729 5728 5726 5724 5722 5720 5718 5716 5714 5713 5711 5709 5707 5706 5704 5702 5701 5700 5698 5696 5694 5692 5691 5690 5690 5689 5688 5688 5687 5686 5685 5684 5683 5682 5681 5680 5679 5678 5677 5676 5675 5675 5675 5676 5676 5676 5677 5678 5679 5681 5683 5685 5686 5688 5691
5739 5737 5736 5734 5732 5730 5728 5726 5725 5723 5721 5720 5718 5715 5713 5710 5708 5707 5705 5703 5701 5699 5698 5696 5694 5693 5692 5690 5688 5686 5685 5683 5683 5682 5682 5681 5680 5680 5679 5678 5677 5676 5676 5674 5673 5673 5672 5671 5671 5671 5670 5670 5671 5671 5672 5673 5675 5676 5678 5680 5682 5684 5686
5734 5732 5731 5729 5727 5725 5723 5722 5720 5718 5717 5715 5713 5710 5708 5705 5703 5701 5699 5697 5695 5693 5691 5689 5687 5686 5685 5684 5682 5680 5678 5677 5675 5675 5675 5674 5673 5673 5673 5672 5671 5670 5670 5669 5668 5667 5667 5666 5666 5665 5665 5665 5666 5666 5667 5668 5670 5671 5673 5674 5677 5679 5681
5729 5728 5726 5724 5722 5721 5719 5717 5715 5713 5712 5709 5707 5705 5703 5700 5698 5696 5693 5691 5689 5686 5684 5682 5680 5679 5677 5676 5675 5673 5672 5670 5668 5667 5667 5667 5666 5665 5665 5665 5664 5664 5664 5663 5663 5662 5661 5661 5661 5660 5660 5660 5660 5661 5662 5663 5665 5666 5667 5669 5672 5674 5676
5725 5723 5722 5720 5718 5716 5715 5713 5711 5708 5706 5704 5702 5700 5697 5695 5692 5690 5687 5685 5682 5679 5677 5674 5672 5670 5669 5667 5666 5665 5664 5662 5661 5660 5659 5658 5658 5658 5658 5657 5657 5657 5657 5656 5656 5656 5656 5655 5655 5655 5655 5655 5655 5656 5656 5658 5659 5661 5662 5663 5666 5668 5671
5720 5719 5717 5716 5714 5712 5710 5708 5706 5703 5701 5699 5697 5694 5691 5689 5686 5683 5680 5678 5675 5673 5670 5667 5664 5662 5660 5658 5657 5656 5654 5653 5652 5651 5650 5649 5649 5649 5650 5650 5649 5649 5649 5650 5650 5650 5649 5649 5649 5649 5650 5650 5650 5651 5651 5653 5654 5655 5656 5658 5660 5662 5665
5716 5715 5713 5712 5710 5708 5706 5703 5701 5698 5696 5694 5692 5689 5686 5683 5680 5677 5674 5671 5669 5666 5663 5660 5657 5654 5652 5649 5647 5646 5645 5643 5642 5641 5640 5640 5640 5640 5640 5641 5641 5641 5641 5642 5642 5643 5643 5643 5643 5643 5644 5644 5645 5645 5646 5648 5649 5650 5651 5652 5654 5656 5659
5712 5711 5709 5707 5705 5703 5701 5699 5696 5693 5691 5689 5686 5684 5681 5678 5675 5672 5669 5666 5663 5660 5657 5654 5651 5647 5644 5641 5638 5636 5634 5633 5632 5631 5630 5630 5629 5630 5630 5631 5632 5632 5633 5633 5634 5635 5636 5636 5637 5637 5637 5638 5639 5640 5641 5642 5643 5644 5645 5647 5648 5651 5653
5708 5706 5704 5702 5700 5699 5696 5694 5691 5688 5686 5683 5681 5678 5676 5673 5669 5666 5664 5660 5657 5654 5651 5647 5644 5641 5638 5634 5631 5627 5625 5623 5621 5620 5619 5619 5618 5618 5619 5620 5621 5622 5624 5625 5625 5627 5628 5629 5630 5630 5631 5632 5633 5634 5635 5635 5636 5638 5639 5641 5642 5645 5647
5704 5702 5700 5698 5696 5694 5692 5689 5686 5684 5681 5678 5676 5673 5671 5668 5665 5661 5658 5655 5651 5648 5644 5641 5637 5634 5630 5627 5623 5620 5616 5613 5610 5609 5607 5607 5607 5607 5607 5608 5610 5611 5613 5615 5616 5618 5619 5621 5622 5623 5624 5625 5626 5627 5628 5629 5630 5632 5633 5635 5637 5639 5641
5700 5698 5696 5693 5691 5690 5687 5684 5682 5679 5677 5674 5671 5668 5666 5663 5659 5656 5653 5649 5645 5641 5637 5633 5630 5626 5622 5618 5615 5611 5607 5603 5600 5598 5596 5595 5594 5595 5595 5596 5598 5600 5602 5604 5606 5608 5610 5612 5614 5615 5617 5619 5620 5621 5622 5623 5625 5626 5627 5629 5631 5633 5635
5695 5694 5692 5689 5687 5685 5683 5681 5678 5676 5673 5670 5667 5664 5661 5657 5654 5650 5647 5643 5639 5635 5630 5626 5622 5618 5614 5610 5605 5601 5597 5593 5590 5587 5584 5582 5582 5582 5583 5584 5586 5588 5590 5593 5596 5598 5601 5603 5605 5607 5609 5611 5613 5615 5616 5618 5620 5621 5622 5624 5625 5627 5629
5691 5690 5688 5686 5684 5682 5680 5677 5675 5672 5669 5666 5662 5659 5655 5652 5648 5645 5641 5637 5633 5629 5624 5620 5615 5611 5606 5601 5596 5591 5587 5583 5579 5575 5573 5571 5569 5569 5570 5571 5573 5575 5578 5582 5585 5588 5591 5593 5596 5599 5601 5603 5606 5608 5610 5611 5614 5615 5617 5618 5620 5621 5623
5688 5686 5684 5682 5680 5679 5677 5674 5671 5668 5665 5661 5658 5654 5651 5647 5643 5639 5635 5631 5627 5623 5618 5614 5609 5604 5598 5593 5587 5581 5576 5571 5567 5564 5561 5559 5558 5557 5558 5559 5561 5563 5566 5570 5574 5577 5580 5584 5587 5590 5593 5595 5598 5601 5603 5605 5607 5609 5611 5613 5614 5616 5617
5684 5683 5681 5679 5677 5675 5673 5670 5667 5664 5661 5658 5654 5650 5646 5642 5638 5634 5630 5626 5622 5617 5613 5608 5603 5597 5591 5585 5579 5572 5566 5561 5556 5553 5551 5549 5547 5546 5546 5547 5549 5551 5555 5559 5563 5567 5570 5574 5577 5581 5584 5587 5590 5594 5597 5599 5601 5603 5605 5606 5608 5610 5612
5682 5680 5678 5676 5674 5672 5670 5667 5664 5661 5657 5654 5650 5646 5642 5638 5634 5630 5626 5621 5617 5612 5608 5602 5597 5591 5584 5577 5570 5564 5558 5552 5547 5544 5542 5540 5538 5537 5537 5537 5539 5541 5544 5548 5552 5557 5560 5564 5568 5571 5575 5579 5582 5586 5589 5592 5595 5597 5598 5600 5602 5603 5605
5679 5677 5675 5673 5671 5669 5667 5664 5661 5658 5654 5651 5647 5643 5639 5635 5631 5627 5623 5618 5613 5608 5603 5597 5591 5584 5577 5570 5563 5556 5550 5545 5540 5536 5533 5532 5530 5529 5528 5529 5530 5532 5534 5538 5543 5547 5551 5554 5558 5562 5566 5570 5574 5577 5581 5585 5588 5590 5592 5594 5596 5597 5599